Weather History for London-Corbin, KY

Change the Weather History Date:

Friday, April 5, 2013

  Actual Average Record
Temperature  
Mean Temperature 51 °F 53 °F  
Max Temperature 64 °F 65 °F 86 °F (1988)
Min Temperature 38 °F 41 °F 26 °F (1972)
Degree Days  
Heating Degree Days 14 12  
Month to date heating degree days 104 63  
Since 1 July heating degree days 4244 3888  
Cooling Degree Days 0 0  
Month to date cooling degree days 0 0  
Year to date cooling degree days 0 3  
Moisture  
Dew Point 36 °F    
Average Humidity 62    
Maximum Humidity 100    
Minimum Humidity 23    
Precipitation  
Precipitation 0.00 in 0.13 in 0.78 in (2012)
Month to date precipitation 0.25 0.64  
Year to date precipitation 12.49 11.94  
Sea Level Pressure  
Sea Level Pressure 30.03 in    
Wind  
Wind Speed 3 mph (NW)    
Max Wind Speed 15 mph    
Max Gust Speed 20 mph    
Visibility 7 miles    
Events Fog    
T = Trace of Precipitation, MM = Missing Value Source: NWS Daily Summary

Daily Weather History Graph

Daily Weather History Graph

Search for Another Location

Airport:

Trip Planner

Search our weather history database for the weather conditions in past years. The results will help you decide how hot, cold, wet, or windy it might be!

Date:

Astronomy

Apr. 05, 2013 Rise Set
Actual Time 7:15 AM EDT 8:02 PM EDT
Civil Twilight 6:49 AM EDT 8:28 PM EDT
Nautical Twilight 6:18 AM EDT 9:00 PM EDT
Astronomical Twilight 5:46 AM EDT 9:32 PM EDT
Moon 4:15 AM EDT (4/5) 3:31 PM EDT (4/5)
Length of Visible Light 13h 39m
Length of Day
12h 46m
Waning Crescent, 24% of the Moon is Illuminated
Apr 5
Waning Crescent
Apr 10
New
Apr 18
First Quarter
Apr 25
Full
May 2
Last Quarter

Hourly Weather History & Observations

Time (EDT) Temp. Windchill Dew Point Humidity Pressure Visibility Wind Dir Wind Speed Gust Speed Precip Events Conditions
12:53 AM 43.0 °F - 41.0 °F 93% 30.00 in 6.0 mi Calm Calm - N/A   Overcast
1:26 AM 42.8 °F - 41.0 °F 93% 29.99 in 8.0 mi Calm Calm - N/A   Overcast
1:53 AM 43.0 °F - 41.0 °F 93% 29.99 in 8.0 mi Calm Calm - N/A   Overcast
2:01 AM 42.8 °F - 41.0 °F 93% 29.98 in 7.0 mi Calm Calm - N/A   Overcast
2:29 AM 42.8 °F - 41.0 °F 93% 29.98 in 7.0 mi Calm Calm - N/A   Overcast
2:48 AM 42.8 °F - 41.0 °F 93% 29.99 in 7.0 mi Calm Calm - N/A   Overcast
2:53 AM 43.0 °F - 41.0 °F 93% 30.00 in 7.0 mi Calm Calm - N/A   Overcast
3:10 AM 42.8 °F - 41.0 °F 93% 29.99 in 6.0 mi Calm Calm - N/A   Overcast
3:53 AM 42.1 °F - 41.0 °F 96% 30.01 in 6.0 mi Calm Calm - N/A   Overcast
4:53 AM 41.0 °F 39.0 °F 39.9 °F 96% 30.02 in 4.0 mi WNW 3.5 mph - N/A   Overcast
5:06 AM 41.0 °F 39.0 °F 39.2 °F 93% 30.01 in 4.0 mi WNW 3.5 mph - N/A   Overcast
5:16 AM 41.0 °F 39.0 °F 39.2 °F 93% 30.02 in 1.8 mi NW 3.5 mph - N/A   Overcast
5:26 AM 41.0 °F 39.0 °F 39.2 °F 93% 30.02 in 0.5 mi NW 3.5 mph - N/A Fog Fog
5:53 AM 39.9 °F - 39.9 °F 100% 30.04 in 0.2 mi Calm Calm - N/A Fog Fog
6:53 AM 39.0 °F 36.8 °F 37.9 °F 96% 30.05 in 0.2 mi NW 3.5 mph - N/A Fog Fog
7:53 AM 37.9 °F - 37.0 °F 97% 30.06 in 0.2 mi Calm Calm - N/A Fog Fog
8:53 AM 39.0 °F - 39.0 °F 100% 30.07 in 0.2 mi Calm Calm - N/A Fog Fog
9:30 AM 39.2 °F - 37.4 °F 93% 30.07 in 2.5 mi Calm Calm - N/A   Overcast
9:38 AM 39.2 °F - 39.2 °F 100% 30.07 in 3.0 mi Calm Calm - N/A   Mostly Cloudy
9:53 AM 41.0 °F - 39.9 °F 96% 30.08 in 8.0 mi Calm Calm - N/A   Scattered Clouds
10:53 AM 48.9 °F - 39.0 °F 69% 30.09 in 10.0 mi Calm Calm - N/A   Clear
11:53 AM 54.0 °F - 33.1 °F 45% 30.08 in 10.0 mi North 5.8 mph - N/A   Clear
12:53 PM 55.9 °F - 30.0 °F 37% 30.06 in 10.0 mi NNE 4.6 mph - N/A   Clear
1:53 PM 59.0 °F - 28.9 °F 32% 30.04 in 10.0 mi Variable 3.5 mph - N/A   Clear
2:53 PM 63.0 °F - 25.0 °F 24% 30.01 in 10.0 mi Variable 4.6 mph - N/A   Clear
3:53 PM 64.0 °F - 28.9 °F 27% 30.00 in 10.0 mi North 10.4 mph 16.1 mph N/A   Clear
4:53 PM 63.0 °F - 28.0 °F 27% 30.00 in 10.0 mi WNW 9.2 mph - N/A   Clear
5:53 PM 63.0 °F - 28.9 °F 28% 30.01 in 10.0 mi NNW 6.9 mph - N/A   Clear
6:53 PM 61.0 °F - 28.9 °F 30% 30.03 in 10.0 mi NW 6.9 mph - N/A   Clear
7:53 PM 57.9 °F - 30.0 °F 35% 30.04 in 10.0 mi WNW 6.9 mph - N/A   Clear
8:53 PM 55.9 °F - 28.0 °F 34% 30.06 in 10.0 mi NW 4.6 mph - N/A   Clear
9:53 PM 51.1 °F - 30.0 °F 44% 30.09 in 10.0 mi Calm Calm - N/A   Clear
10:53 PM 46.0 °F - 32.0 °F 58% 30.10 in 10.0 mi Calm Calm - N/A   Clear
11:53 PM 43.0 °F - 33.1 °F 68% 30.10 in 10.0 mi Calm Calm - N/A   Clear